^^
Station Historical Data
Daily Summary for October 17, 2021 Units:  English    Metric   Both
Daily Weekly Monthly Yearly
  High: Low: Average:
Temperature: 62.5 °F 50 °F 55.2 °F
Dew Point: 47 °F 41 °F 43.9 °F
Humidity: 80% 49% 67%
Wind Speed: 8mph 3mph 5.2mph
Wind Gust: 14mph - -
Wind- - West
Pressure: 29.98 in 29.88 in -
Precipitation: 0.00 in    
 
 
Tabular Data for October 17, 2021
Time Temperature Dew Point Pressure Wind Wind Speed Wind Gust Humidity Rainfall Rate (Hourly) solar
00:00 52.4 °F 44 °F 29.89 in North 7 mph 7 mph 73% 0.00 in 0 W/m2
00:05 52.3 °F 44.3 °F 29.89 in NNW 7 mph 7 mph 74% 0.00 in 0 W/m2
00:10 52.2 °F 44.2 °F 29.89 in WNW 5 mph 6 mph 74% 0.00 in 0 W/m2
00:15 52.1 °F 44.4 °F 29.89 in West 4 mph 6 mph 75% 0.00 in 0 W/m2
00:20 52.1 °F 44.1 °F 29.89 in NW 5 mph 5 mph 74% 0.00 in 0 W/m2
00:25 51.9 °F 44.2 °F 29.89 in WSW 5 mph 5 mph 75% 0.00 in 0 W/m2
00:30 51.9 °F 44.2 °F 29.89 in NNW 4 mph 4 mph 75% 0.00 in 0 W/m2
00:35 51.9 °F 44.2 °F 29.89 in NW 4 mph 5 mph 75% 0.00 in 0 W/m2
00:40 51.8 °F 44.1 °F 29.89 in WSW 4 mph 7 mph 75% 0.00 in 0 W/m2
00:45 51.7 °F 43.7 °F 29.89 in West 5 mph 7 mph 74% 0.00 in 0 W/m2
00:50 51.8 °F 43.8 °F 29.89 in NW 6 mph 8 mph 74% 0.00 in 0 W/m2
00:55 51.7 °F 44 °F 29.89 in West 4 mph 8 mph 75% 0.00 in 0 W/m2
01:00 51.8 °F 43.8 °F 29.89 in NW 5 mph 5 mph 74% 0.00 in 0 W/m2
01:05 51.7 °F 43.7 °F 29.89 in NNW 6 mph 6 mph 74% 0.00 in 0 W/m2
01:10 51.7 °F 43.7 °F 29.89 in WNW 4 mph 4 mph 74% 0.00 in 0 W/m2
01:15 51.7 °F 44 °F 29.89 in NW 4 mph 7 mph 75% 0.00 in 0 W/m2
01:20 51.7 °F 44 °F 29.89 in NNW 3 mph 3 mph 75% 0.00 in 0 W/m2
01:25 51.6 °F 43.9 °F 29.89 in NW 3 mph 3 mph 75% 0.00 in 0 W/m2
01:30 51.6 °F 43.9 °F 29.89 in WNW 3 mph 3 mph 75% 0.00 in 0 W/m2
01:35 51.5 °F 43.8 °F 29.89 in WSW 3 mph 3 mph 75% 0.00 in 0 W/m2
01:40 51.5 °F 43.8 °F 29.89 in NW 3 mph 4 mph 75% 0.00 in 0 W/m2
01:45 51.4 °F 44.1 °F 29.89 in West 3 mph 4 mph 76% 0.00 in 0 W/m2
01:50 51.4 °F 44.4 °F 29.89 in NW 3 mph 5 mph 77% 0.00 in 0 W/m2
01:55 51.4 °F 44.4 °F 29.89 in NW 3 mph 5 mph 77% 0.00 in 0 W/m2
02:00 51.4 °F 44.4 °F 29.89 in SW 4 mph 4 mph 77% 0.00 in 0 W/m2
02:05 51.4 °F 44.1 °F 29.89 in WNW 4 mph 4 mph 76% 0.00 in 0 W/m2
02:10 51.4 °F 44.1 °F 29.89 in NW 4 mph 5 mph 76% 0.00 in 0 W/m2
02:15 51.4 °F 43.7 °F 29.89 in NNW 4 mph 5 mph 75% 0.00 in 0 W/m2
02:20 51.4 °F 43.7 °F 29.89 in West 4 mph 4 mph 75% 0.00 in 0 W/m2
02:25 51.5 °F 43.8 °F 29.89 in NW 3 mph 5 mph 75% 0.00 in 0 W/m2
02:30 51.5 °F 43.1 °F 29.89 in NNW 4 mph 4 mph 73% 0.00 in 0 W/m2
02:35 51.6 °F 43.2 °F 29.89 in NW 5 mph 5 mph 73% 0.00 in 0 W/m2
02:40 51.5 °F 42.8 °F 29.89 in NNW 5 mph 5 mph 72% 0.00 in 0 W/m2
02:45 51.6 °F 42.9 °F 29.89 in WNW 5 mph 7 mph 72% 0.00 in 0 W/m2
02:50 51.6 °F 42.9 °F 29.89 in WSW 4 mph 7 mph 72% 0.00 in 0 W/m2
02:55 51.7 °F 43 °F 29.89 in WNW 4 mph 7 mph 72% 0.00 in 0 W/m2
03:00 51.7 °F 43 °F 29.89 in West 4 mph 7 mph 72% 0.00 in 0 W/m2
03:05 51.8 °F 42.7 °F 29.89 in NNW 5 mph 7 mph 71% 0.00 in 0 W/m2
03:10 51.8 °F 42.7 °F 29.89 in West 5 mph 5 mph 71% 0.00 in 0 W/m2
03:15 51.8 °F 42.7 °F 29.89 in WSW 5 mph 5 mph 71% 0.00 in 0 W/m2
03:20 51.9 °F 42.8 °F 29.89 in NW 6 mph 6 mph 71% 0.00 in 0 W/m2
03:25 52 °F 42.9 °F 29.89 in NNW 6 mph 9 mph 71% 0.00 in 0 W/m2
03:30 52.1 °F 43 °F 29.89 in NW 5 mph 5 mph 71% 0.00 in 0 W/m2
03:35 52.1 °F 43.3 °F 29.89 in West 6 mph 6 mph 72% 0.00 in 0 W/m2
03:40 52.1 °F 43.3 °F 29.89 in NW 6 mph 9 mph 72% 0.00 in 0 W/m2
03:45 52.1 °F 42.6 °F 29.89 in West 7 mph 9 mph 70% 0.00 in 0 W/m2
03:50 52 °F 42.1 °F 29.89 in NW 7 mph 7 mph 69% 0.00 in 0 W/m2
03:55 51.9 °F 42.8 °F 29.89 in WNW 7 mph 7 mph 71% 0.00 in 0 W/m2
04:00 51.7 °F 42.6 °F 29.89 in NNW 7 mph 7 mph 71% 0.00 in 0 W/m2
04:05 51.5 °F 42.4 °F 29.89 in West 5 mph 7 mph 71% 0.00 in 0 W/m2
04:10 51.4 °F 42.7 °F 29.89 in West 5 mph 5 mph 72% 0.00 in 0 W/m2
04:15 51.1 °F 42.7 °F 29.89 in NW 5 mph 9 mph 73% 0.00 in 0 W/m2
04:20 50.9 °F 42.9 °F 29.89 in NW 5 mph 5 mph 74% 0.00 in 0 W/m2
04:25 50.6 °F 42.6 °F 29.89 in North 5 mph 5 mph 74% 0.00 in 0 W/m2
04:30 50.5 °F 42.9 °F 29.89 in NW 5 mph 5 mph 75% 0.00 in 0 W/m2
04:35 50.5 °F 43.2 °F 29.89 in NW 3 mph 5 mph 76% 0.00 in 0 W/m2
04:40 50.4 °F 43.1 °F 29.89 in NW 3 mph 3 mph 76% 0.00 in 0 W/m2
04:45 50.3 °F 43.4 °F 29.89 in NW 3 mph 6 mph 77% 0.00 in 0 W/m2
04:50 50.3 °F 43 °F 29.89 in WSW 3 mph 4 mph 76% 0.00 in 0 W/m2
04:55 50.2 °F 43.3 °F 29.89 in SW 4 mph 4 mph 77% 0.00 in 0 W/m2
05:00 50.2 °F 43.3 °F 29.89 in WSW 3 mph 3 mph 77% 0.00 in 0 W/m2
05:05 50.2 °F 43.3 °F 29.90 in NW 3 mph 4 mph 77% 0.00 in 0 W/m2
05:10 50.2 °F 43.3 °F 29.89 in SW 3 mph 3 mph 77% 0.00 in 0 W/m2
05:15 50.1 °F 43.5 °F 29.89 in WSW 3 mph 3 mph 78% 0.00 in 0 W/m2
05:20 50.1 °F 43.5 °F 29.90 in NW 3 mph 5 mph 78% 0.00 in 0 W/m2
05:25 50.1 °F 43.5 °F 29.90 in WNW 3 mph 5 mph 78% 0.00 in 0 W/m2
05:30 50 °F 43.4 °F 29.90 in WNW 3 mph 3 mph 78% 0.00 in 0 W/m2
05:35 50 °F 43.4 °F 29.90 in West 3 mph 3 mph 78% 0.00 in 0 W/m2
05:40 50 °F 43.4 °F 29.90 in West 3 mph 3 mph 78% 0.00 in 0 W/m2
05:45 50 °F 43.4 °F 29.90 in SW 3 mph 6 mph 78% 0.00 in 0 W/m2
05:50 50 °F 43.4 °F 29.90 in NW 4 mph 4 mph 78% 0.00 in 0 W/m2
05:55 50 °F 43.4 °F 29.90 in NW 4 mph 5 mph 78% 0.00 in 0 W/m2
06:00 50.1 °F 43.8 °F 29.90 in NNW 4 mph 4 mph 79% 0.00 in 0 W/m2
06:05 50.1 °F 43.8 °F 29.90 in WNW 4 mph 4 mph 79% 0.00 in 0 W/m2
06:10 50.1 °F 43.8 °F 29.90 in West 4 mph 4 mph 79% 0.00 in 0 W/m2
06:15 50.1 °F 43.8 °F 29.90 in WSW 4 mph 4 mph 79% 0.00 in 0 W/m2
06:20 50.1 °F 43.8 °F 29.90 in NNW 4 mph 4 mph 79% 0.00 in 0 W/m2
06:25 50.1 °F 43.8 °F 29.90 in NNW 4 mph 5 mph 79% 0.00 in 0 W/m2
06:30 50.1 °F 44.2 °F 29.90 in WSW 4 mph 4 mph 80% 0.00 in 0 W/m2
06:35 50.2 °F 43.9 °F 29.90 in SW 4 mph 4 mph 79% 0.00 in 0 W/m2
06:40 50.3 °F 44 °F 29.90 in West 3 mph 3 mph 79% 0.00 in 0 W/m2
06:45 50.3 °F 44 °F 29.90 in West 4 mph 5 mph 79% 0.00 in 0 W/m2
06:50 50.4 °F 44.1 °F 29.90 in WSW 5 mph 5 mph 79% 0.00 in 0 W/m2
06:55 50.5 °F 44.2 °F 29.90 in NNW 5 mph 5 mph 79% 0.00 in 0 W/m2
07:00 50.6 °F 44 °F 29.90 in NW 5 mph 5 mph 78% 0.00 in 0 W/m2
07:05 50.6 °F 43.7 °F 29.90 in NW 5 mph 5 mph 77% 0.00 in 0 W/m2
07:10 50.8 °F 44.2 °F 29.90 in NNW 4 mph 5 mph 78% 0.00 in 0 W/m2
07:15 50.8 °F 44.2 °F 29.90 in SSW 4 mph 5 mph 78% 0.00 in 0 W/m2
07:20 51 °F 44.4 °F 29.90 in NNW 4 mph 7 mph 78% 0.00 in 0 W/m2
07:25 51 °F 44.4 °F 29.90 in North 4 mph 7 mph 78% 0.00 in 0 W/m2
07:30 51.1 °F 44.5 °F 29.90 in WNW 5 mph 5 mph 78% 0.00 in 0 W/m2
07:35 51.1 °F 44.1 °F 29.90 in SW 5 mph 5 mph 77% 0.00 in 0 W/m2
07:40 51.3 °F 44.7 °F 29.90 in North 5 mph 5 mph 78% 0.00 in 0 W/m2
07:45 51.4 °F 44.8 °F 29.90 in NNW 4 mph 5 mph 78% 0.00 in 0 W/m2
07:50 51.4 °F 44.4 °F 29.91 in West 4 mph 4 mph 77% 0.00 in 0 W/m2
07:55 51.5 °F 44.5 °F 29.90 in West 5 mph 5 mph 77% 0.00 in 0 W/m2
08:00 51.6 °F 44.6 °F 29.91 in WSW 5 mph 5 mph 77% 0.00 in 5 W/m2
08:05 51.7 °F 44.7 °F 29.91 in West 5 mph 5 mph 77% 0.00 in 7 W/m2
08:10 51.7 °F 44 °F 29.91 in West 5 mph 10 mph 75% 0.00 in 14 W/m2
08:15 51.8 °F 44.1 °F 29.91 in SW 5 mph 10 mph 75% 0.00 in 16 W/m2
08:20 51.9 °F 43.9 °F 29.91 in West 6 mph 7 mph 74% 0.00 in 25 W/m2
08:25 52 °F 44 °F 29.91 in NNW 5 mph 8 mph 74% 0.00 in 28 W/m2
08:30 52.1 °F 44.1 °F 29.91 in West 5 mph 5 mph 74% 0.00 in 33 W/m2
08:35 52.2 °F 44.2 °F 29.91 in WNW 5 mph 7 mph 74% 0.00 in 39 W/m2
08:40 52.3 °F 44.3 °F 29.91 in NE 5 mph 5 mph 74% 0.00 in 39 W/m2
08:45 52.3 °F 44.3 °F 29.91 in South 5 mph 5 mph 74% 0.00 in 51 W/m2
08:50 52.4 °F 44 °F 29.91 in West 5 mph 6 mph 73% 0.00 in 47 W/m2
08:55 52.4 °F 44.4 °F 29.91 in WNW 5 mph 6 mph 74% 0.00 in 51 W/m2
09:00 52.5 °F 44.1 °F 29.92 in NNW 6 mph 6 mph 73% 0.00 in 56 W/m2
09:05 52.5 °F 44.1 °F 29.92 in NW 5 mph 9 mph 73% 0.00 in 58 W/m2
09:10 52.6 °F 44.5 °F 29.92 in NW 5 mph 7 mph 74% 0.00 in 74 W/m2
09:15 52.6 °F 44.5 °F 29.92 in WNW 5 mph 7 mph 74% 0.00 in 90 W/m2
09:20 52.6 °F 44.5 °F 29.92 in NW 5 mph 5 mph 74% 0.00 in 98 W/m2
09:25 52.6 °F 44.5 °F 29.91 in West 5 mph 6 mph 74% 0.00 in 97 W/m2
09:30 52.6 °F 44.5 °F 29.92 in WNW 6 mph 6 mph 74% 0.00 in 97 W/m2
09:35 52.7 °F 44.6 °F 29.92 in NNW 6 mph 6 mph 74% 0.00 in 109 W/m2
09:40 52.7 °F 44.6 °F 29.92 in West 6 mph 7 mph 74% 0.00 in 100 W/m2
09:45 52.8 °F 44.7 °F 29.92 in SW 5 mph 7 mph 74% 0.00 in 86 W/m2
09:50 52.8 °F 44.7 °F 29.92 in NNW 5 mph 5 mph 74% 0.00 in 97 W/m2
09:55 52.9 °F 45.2 °F 29.92 in NW 5 mph 5 mph 75% 0.00 in 93 W/m2
10:00 53 °F 45.3 °F 29.92 in NW 6 mph 6 mph 75% 0.00 in 56 W/m2
10:05 53.1 °F 45.4 °F 29.92 in WNW 6 mph 6 mph 75% 0.00 in 72 W/m2
10:10 53.2 °F 45.1 °F 29.92 in NW 6 mph 10 mph 74% 0.00 in 153 W/m2
10:15 53.2 °F 44.8 °F 29.92 in WNW 6 mph 10 mph 73% 0.00 in 93 W/m2
10:20 53.5 °F 45.4 °F 29.92 in North 6 mph 6 mph 74% 0.00 in 169 W/m2
10:25 53.7 °F 45.6 °F 29.92 in NNW 5 mph 6 mph 74% 0.00 in 220 W/m2
10:30 53.8 °F 45.7 °F 29.92 in WNW 5 mph 5 mph 74% 0.00 in 179 W/m2
10:35 54 °F 45.5 °F 29.93 in NW 5 mph 5 mph 73% 0.00 in 135 W/m2
10:40 54.1 °F 45.3 °F 29.93 in WNW 5 mph 10 mph 72% 0.00 in 132 W/m2
10:45 54.1 °F 45.6 °F 29.93 in NNW 5 mph 10 mph 73% 0.00 in 62 W/m2
10:50 54.1 °F 45.6 °F 29.93 in West 5 mph 5 mph 73% 0.00 in 60 W/m2
10:55 54.2 °F 45 °F 29.93 in NW 5 mph 5 mph 71% 0.00 in 144 W/m2
11:00 54.3 °F 45.5 °F 29.94 in WNW 6 mph 6 mph 72% 0.00 in 44 W/m2
11:05 54.4 °F 45.6 °F 29.94 in NNE 6 mph 6 mph 72% 0.00 in 47 W/m2
11:10 54.6 °F 45.4 °F 29.94 in NW 6 mph 6 mph 71% 0.00 in 56 W/m2
11:15 54.7 °F 45.5 °F 29.93 in WNW 5 mph 8 mph 71% 0.00 in 113 W/m2
11:20 54.9 °F 44.9 °F 29.93 in West 5 mph 9 mph 69% 0.00 in 229 W/m2
11:25 55 °F 45 °F 29.93 in West 6 mph 9 mph 69% 0.00 in 274 W/m2
11:30 55.2 °F 45.6 °F 29.93 in West 5 mph 5 mph 70% 0.00 in 243 W/m2
11:35 55.3 °F 45.7 °F 29.93 in West 4 mph 6 mph 70% 0.00 in 206 W/m2
11:40 55.4 °F 45.4 °F 29.93 in NW 4 mph 4 mph 69% 0.00 in 183 W/m2
11:45 55.5 °F 45.1 °F 29.93 in WSW 5 mph 5 mph 68% 0.00 in 181 W/m2
11:50 55.4 °F 45 °F 29.93 in NW 6 mph 6 mph 68% 0.00 in 155 W/m2
11:55 55.3 °F 44.9 °F 29.93 in West 5 mph 6 mph 68% 0.00 in 137 W/m2
12:00 55.3 °F 44.9 °F 29.93 in NNW 4 mph 4 mph 68% 0.00 in 134 W/m2
12:05 55.3 °F 44.9 °F 29.93 in NNW 5 mph 5 mph 68% 0.00 in 132 W/m2
12:10 55.3 °F 44.9 °F 29.93 in WNW 6 mph 10 mph 68% 0.00 in 160 W/m2
12:15 55.4 °F 45 °F 29.93 in West 6 mph 10 mph 68% 0.00 in 181 W/m2
12:20 55.4 °F 45 °F 29.93 in SSW 5 mph 5 mph 68% 0.00 in 169 W/m2
12:25 55.5 °F 44.7 °F 29.93 in West 6 mph 7 mph 67% 0.00 in 195 W/m2
12:30 55.6 °F 44.8 °F 29.93 in NW 7 mph 7 mph 67% 0.00 in 207 W/m2
12:35 55.7 °F 45.3 °F 29.93 in NW 6 mph 7 mph 68% 0.00 in 225 W/m2
12:40 55.8 °F 45.4 °F 29.93 in NNW 4 mph 10 mph 68% 0.00 in 255 W/m2
12:45 56 °F 45.6 °F 29.93 in WNW 4 mph 10 mph 68% 0.00 in 322 W/m2
12:50 56.2 °F 45.8 °F 29.92 in WSW 5 mph 5 mph 68% 0.00 in 357 W/m2
12:55 56.5 °F 45.7 °F 29.93 in NW 6 mph 6 mph 67% 0.00 in 301 W/m2
13:00 56.7 °F 45.9 °F 29.92 in WNW 5 mph 9 mph 67% 0.00 in 290 W/m2
13:05 56.8 °F 46 °F 29.92 in WNW 5 mph 9 mph 67% 0.00 in 250 W/m2
13:10 56.7 °F 45.9 °F 29.92 in West 6 mph 6 mph 67% 0.00 in 269 W/m2
13:15 56.8 °F 45.6 °F 29.92 in NNW 5 mph 6 mph 66% 0.00 in 415 W/m2
13:20 56.9 °F 46.1 °F 29.92 in WNW 5 mph 6 mph 67% 0.00 in 617 W/m2
13:25 57.4 °F 46.9 °F 29.92 in WNW 5 mph 6 mph 68% 0.00 in 603 W/m2
13:30 57.6 °F 45.9 °F 29.92 in WSW 5 mph 5 mph 65% 0.00 in 589 W/m2
13:35 57.9 °F 46.2 °F 29.92 in West 5 mph 7 mph 65% 0.00 in 584 W/m2
13:40 58.2 °F 46.5 °F 29.91 in NNW 5 mph 5 mph 65% 0.00 in 587 W/m2
13:45 59 °F 46.8 °F 29.91 in West 5 mph 8 mph 64% 0.00 in 587 W/m2
13:50 59.2 °F 46.2 °F 29.91 in NW 6 mph 7 mph 62% 0.00 in 679 W/m2
13:55 59.4 °F 46.8 °F 29.91 in South 5 mph 7 mph 63% 0.00 in 195 W/m2
14:00 59.4 °F 45.9 °F 29.90 in West 5 mph 5 mph 61% 0.00 in 698 W/m2
14:05 59.6 °F 46.1 °F 29.90 in WSW 5 mph 7 mph 61% 0.00 in 362 W/m2
14:10 59.6 °F 45.7 °F 29.90 in South 6 mph 6 mph 60% 0.00 in 288 W/m2
14:15 59.7 °F 46.2 °F 29.90 in West 6 mph 6 mph 61% 0.00 in 290 W/m2
14:20 60 °F 46.1 °F 29.89 in SSW 6 mph 6 mph 60% 0.00 in 204 W/m2
14:25 60 °F 46.9 °F 29.89 in West 5 mph 6 mph 62% 0.00 in 113 W/m2
14:30 59.8 °F 46.7 °F 29.89 in SW 5 mph 5 mph 62% 0.00 in 121 W/m2
14:35 59.7 °F 45.8 °F 29.89 in WNW 4 mph 5 mph 60% 0.00 in 84 W/m2
14:40 59.6 °F 44.8 °F 29.89 in WSW 3 mph 3 mph 58% 0.00 in 56 W/m2
14:45 59.4 °F 45.1 °F 29.89 in West 3 mph 3 mph 59% 0.00 in 72 W/m2
14:50 59.4 °F 45.5 °F 29.89 in SW 3 mph 7 mph 60% 0.00 in 111 W/m2
14:55 59.3 °F 45.8 °F 29.88 in West 3 mph 7 mph 61% 0.00 in 86 W/m2
15:00 59.2 °F 45.3 °F 29.88 in WNW 4 mph 4 mph 60% 0.00 in 46 W/m2
15:05 59.1 °F 44.3 °F 29.88 in NW 5 mph 5 mph 58% 0.00 in 60 W/m2
15:10 59.1 °F 44.8 °F 29.88 in West 5 mph 7 mph 59% 0.00 in 114 W/m2
15:15 59.2 °F 44.4 °F 29.88 in West 6 mph 7 mph 58% 0.00 in 345 W/m2
15:20 59.7 °F 44.9 °F 29.88 in SW 6 mph 6 mph 58% 0.00 in 622 W/m2
15:25 60.8 °F 45.9 °F 29.88 in WSW 6 mph 7 mph 58% 0.00 in 195 W/m2
15:30 61.5 °F 46.6 °F 29.88 in SW 6 mph 6 mph 58% 0.00 in 622 W/m2
15:35 62 °F 47 °F 29.88 in SW 7 mph 7 mph 58% 0.00 in 577 W/m2
15:40 62.3 °F 45.9 °F 29.88 in WNW 7 mph 7 mph 55% 0.00 in 573 W/m2
15:45 62.3 °F 45.4 °F 29.88 in WNW 6 mph 9 mph 54% 0.00 in 195 W/m2
15:50 62.3 °F 45.9 °F 29.88 in NNW 5 mph 5 mph 55% 0.00 in 260 W/m2
15:55 62.3 °F 43.4 °F 29.88 in NNW 6 mph 9 mph 50% 0.00 in 431 W/m2
16:00 62.4 °F 43.5 °F 29.88 in North 7 mph 7 mph 50% 0.00 in 494 W/m2
16:05 62.5 °F 44.6 °F 29.88 in West 6 mph 7 mph 52% 0.00 in 489 W/m2
16:10 62.2 °F 43.8 °F 29.88 in NNW 6 mph 9 mph 51% 0.00 in 478 W/m2
16:15 62 °F 42.6 °F 29.88 in North 7 mph 11 mph 49% 0.00 in 390 W/m2
16:20 62 °F 43.1 °F 29.88 in West 8 mph 8 mph 50% 0.00 in 369 W/m2
16:25 61.8 °F 43.5 °F 29.88 in WNW 6 mph 10 mph 51% 0.00 in 360 W/m2
16:30 61.5 °F 43.7 °F 29.88 in WNW 6 mph 6 mph 52% 0.00 in 343 W/m2
16:35 61.5 °F 43.2 °F 29.88 in NW 6 mph 6 mph 51% 0.00 in 334 W/m2
16:40 61.6 °F 43.8 °F 29.88 in NNW 5 mph 10 mph 52% 0.00 in 329 W/m2
16:45 61.6 °F 42.2 °F 29.88 in NW 6 mph 10 mph 49% 0.00 in 58 W/m2
16:50 61.6 °F 42.8 °F 29.88 in WSW 6 mph 10 mph 50% 0.00 in 104 W/m2
16:55 61.4 °F 43.6 °F 29.88 in NNW 6 mph 10 mph 52% 0.00 in 69 W/m2
17:00 61.2 °F 42.9 °F 29.88 in NW 7 mph 7 mph 51% 0.00 in 56 W/m2
17:05 61 °F 42.2 °F 29.88 in NW 6 mph 7 mph 50% 0.00 in 67 W/m2
17:10 61 °F 42.7 °F 29.88 in WNW 5 mph 8 mph 51% 0.00 in 47 W/m2
17:15 60.8 °F 42 °F 29.88 in West 6 mph 8 mph 50% 0.00 in 39 W/m2
17:20 60.7 °F 41.9 °F 29.89 in North 6 mph 7 mph 50% 0.00 in 118 W/m2
17:25 60.5 °F 41.8 °F 29.88 in NNW 6 mph 9 mph 50% 0.00 in 211 W/m2
17:30 60.6 °F 41.8 °F 29.89 in NW 6 mph 6 mph 50% 0.00 in 33 W/m2
17:35 60.5 °F 42.8 °F 29.89 in WSW 6 mph 6 mph 52% 0.00 in 54 W/m2
17:40 60.4 °F 42.7 °F 29.89 in NW 5 mph 5 mph 52% 0.00 in 162 W/m2
17:45 60.3 °F 41.6 °F 29.89 in NW 5 mph 12 mph 50% 0.00 in 146 W/m2
17:50 60.3 °F 42.1 °F 29.89 in West 5 mph 5 mph 51% 0.00 in 121 W/m2
17:55 60.3 °F 41.6 °F 29.89 in WNW 6 mph 6 mph 50% 0.00 in 114 W/m2
18:00 60.3 °F 42.6 °F 29.89 in WNW 6 mph 6 mph 52% 0.00 in 100 W/m2
18:05 60.2 °F 42 °F 29.90 in NW 6 mph 6 mph 51% 0.00 in 86 W/m2
18:10 60.1 °F 41.9 °F 29.90 in NW 6 mph 6 mph 51% 0.00 in 76 W/m2
18:15 60.1 °F 42.4 °F 29.90 in WNW 5 mph 6 mph 52% 0.00 in 58 W/m2
18:20 60.1 °F 41.4 °F 29.89 in WNW 6 mph 6 mph 50% 0.00 in 19 W/m2
18:25 60 °F 41.3 °F 29.90 in NW 6 mph 6 mph 50% 0.00 in 18 W/m2
18:30 60 °F 41.3 °F 29.90 in NNW 7 mph 7 mph 50% 0.00 in 14 W/m2
18:35 59.9 °F 41.2 °F 29.90 in WSW 7 mph 7 mph 50% 0.00 in 12 W/m2
18:40 59.8 °F 42.1 °F 29.90 in NW 7 mph 7 mph 52% 0.00 in 9 W/m2
18:45 59.7 °F 41 °F 29.90 in West 7 mph 7 mph 50% 0.00 in 7 W/m2
18:50 59.7 °F 42 °F 29.90 in NNW 7 mph 7 mph 52% 0.00 in 5 W/m2
18:55 59.6 °F 41.9 °F 29.91 in West 6 mph 7 mph 52% 0.00 in 0 W/m2
19:00 59.5 °F 42.3 °F 29.91 in NW 7 mph 7 mph 53% 0.00 in 0 W/m2
19:05 59.5 °F 42.3 °F 29.91 in WNW 7 mph 9 mph 53% 0.00 in 0 W/m2
19:10 59.4 °F 42.3 °F 29.91 in NNE 6 mph 6 mph 53% 0.00 in 0 W/m2
19:15 59.3 °F 42.6 °F 29.91 in West 6 mph 11 mph 54% 0.00 in 0 W/m2
19:20 59.2 °F 43 °F 29.91 in WNW 6 mph 6 mph 55% 0.00 in 0 W/m2
19:25 59.1 °F 42.9 °F 29.91 in NNW 6 mph 8 mph 55% 0.00 in 0 W/m2
19:30 58.9 °F 42.3 °F 29.92 in NNW 7 mph 7 mph 54% 0.00 in 0 W/m2
19:35 58.8 °F 42.7 °F 29.92 in West 8 mph 8 mph 55% 0.00 in 0 W/m2
19:40 58.7 °F 43.5 °F 29.92 in NW 8 mph 8 mph 57% 0.00 in 0 W/m2
19:45 58.6 °F 42.9 °F 29.92 in NNW 7 mph 8 mph 56% 0.00 in 0 W/m2
19:50 58.5 °F 42.8 °F 29.92 in NW 8 mph 8 mph 56% 0.00 in 0 W/m2
19:55 58.4 °F 43.2 °F 29.93 in NW 7 mph 8 mph 57% 0.00 in 0 W/m2
20:00 58.3 °F 43.6 °F 29.93 in West 6 mph 6 mph 58% 0.00 in 0 W/m2
20:05 58.2 °F 43 °F 29.93 in WSW 6 mph 6 mph 57% 0.00 in 0 W/m2
20:10 58.1 °F 43.8 °F 29.93 in NW 6 mph 6 mph 59% 0.00 in 0 W/m2
20:15 58 °F 42.8 °F 29.93 in West 5 mph 8 mph 57% 0.00 in 0 W/m2
20:20 57.9 °F 42.8 °F 29.93 in WNW 6 mph 6 mph 57% 0.00 in 0 W/m2
20:25 57.8 °F 43.6 °F 29.93 in WSW 6 mph 6 mph 59% 0.00 in 0 W/m2
20:30 57.6 °F 42.9 °F 29.94 in West 6 mph 6 mph 58% 0.00 in 0 W/m2
20:35 57.6 °F 43.4 °F 29.94 in NNW 6 mph 6 mph 59% 0.00 in 0 W/m2
20:40 57.4 °F 43.2 °F 29.94 in NW 5 mph 10 mph 59% 0.00 in 0 W/m2
20:45 57.3 °F 43.1 °F 29.94 in WNW 5 mph 10 mph 59% 0.00 in 0 W/m2
20:50 57.3 °F 42.6 °F 29.94 in WNW 5 mph 7 mph 58% 0.00 in 0 W/m2
20:55 57.2 °F 43 °F 29.94 in NNW 4 mph 7 mph 59% 0.00 in 0 W/m2
21:00 57.1 °F 42.9 °F 29.94 in NW 5 mph 10 mph 59% 0.00 in 0 W/m2
21:05 57 °F 43.2 °F 29.94 in WNW 6 mph 10 mph 60% 0.00 in 0 W/m2
21:10 57 °F 43.7 °F 29.94 in ESE 6 mph 6 mph 61% 0.00 in 0 W/m2
21:15 56.9 °F 43.2 °F 29.94 in WSW 6 mph 6 mph 60% 0.00 in 0 W/m2
21:20 56.8 °F 43.1 °F 29.94 in NW 6 mph 6 mph 60% 0.00 in 0 W/m2
21:25 56.8 °F 43.5 °F 29.95 in NW 5 mph 6 mph 61% 0.00 in 0 W/m2
21:30 56.8 °F 43.1 °F 29.95 in West 5 mph 8 mph 60% 0.00 in 0 W/m2
21:35 56.7 °F 43.4 °F 29.95 in NW 5 mph 8 mph 61% 0.00 in 0 W/m2
21:40 56.7 °F 43.4 °F 29.95 in NNW 5 mph 8 mph 61% 0.00 in 0 W/m2
21:45 56.7 °F 43.4 °F 29.95 in WNW 6 mph 8 mph 61% 0.00 in 0 W/m2
21:50 56.7 °F 43.4 °F 29.95 in WNW 6 mph 9 mph 61% 0.00 in 0 W/m2
21:55 56.7 °F 43.4 °F 29.95 in North 6 mph 10 mph 61% 0.00 in 0 W/m2
22:00 56.7 °F 43.8 °F 29.95 in NNW 7 mph 9 mph 62% 0.00 in 0 W/m2
22:05 56.7 °F 43.8 °F 29.95 in NW 6 mph 9 mph 62% 0.00 in 0 W/m2
22:10 56.6 °F 43.7 °F 29.96 in WNW 5 mph 14 mph 62% 0.00 in 0 W/m2
22:15 56.6 °F 43.7 °F 29.96 in North 5 mph 14 mph 62% 0.00 in 0 W/m2
22:20 56.6 °F 43.7 °F 29.96 in NW 5 mph 7 mph 62% 0.00 in 0 W/m2
22:25 56.5 °F 43.6 °F 29.96 in NNW 6 mph 12 mph 62% 0.00 in 0 W/m2
22:30 56.4 °F 43.1 °F 29.96 in NNE 7 mph 7 mph 61% 0.00 in 0 W/m2
22:35 56.4 °F 43.5 °F 29.96 in NW 6 mph 7 mph 62% 0.00 in 0 W/m2
22:40 56.3 °F 43.4 °F 29.96 in WNW 7 mph 7 mph 62% 0.00 in 0 W/m2
22:45 56.3 °F 43.4 °F 29.97 in North 7 mph 8 mph 62% 0.00 in 0 W/m2
22:50 56.3 °F 43 °F 29.97 in North 7 mph 7 mph 61% 0.00 in 0 W/m2
22:55 56.2 °F 43.3 °F 29.97 in WNW 7 mph 7 mph 62% 0.00 in 0 W/m2
23:00 56.1 °F 43.3 °F 29.97 in NW 6 mph 6 mph 62% 0.00 in 0 W/m2
23:05 56 °F 43.6 °F 29.97 in WNW 5 mph 6 mph 63% 0.00 in 0 W/m2
23:10 55.8 °F 43.4 °F 29.97 in NE 4 mph 6 mph 63% 0.00 in 0 W/m2
23:15 55.7 °F 43.3 °F 29.98 in North 4 mph 6 mph 63% 0.00 in 0 W/m2
23:20 55.5 °F 43.5 °F 29.98 in WNW 5 mph 5 mph 64% 0.00 in 0 W/m2
Sand Point, Michigan, USA
Compliments of Weather Underground - 2 mb